EW9530 Weather Reports


Display with metric or nautical units.
time (UTC)temp
F
wind
direction
speed
MPH
gust
MPH
rain 1hr
in
rain 24hr
in
rain mn
in
humidity
%
barometer
mb
20260905023144 71 29 0.0 3.0 0.00 0.00 0.00 84 1021.4
20260905021655 72 350 3.0 6.0 0.00 0.00 0.00 84 1021.3
20260905020158 72 17 1.0 6.0 0.00 0.00 0.00 83 1021.4
20260905014653 72 26 0.0 4.0 0.00 0.00 0.00 83 1021.3
20260905013141 72 43 2.0 6.0 0.00 0.00 0.00 83 1021.4
20260905011652 72 57 2.0 6.0 0.00 0.00 0.00 82 1021.4
20260905010153 73 46 4.0 6.0 0.00 0.00 0.00 82 1021.4
20260905004650 73 355 0.0 1.0 0.00 0.00 0.00 81 1021.4
20260905003141 73 38 0.0 3.0 0.00 0.00 0.00 81 1021.6
20260905000149 74 38 1.0 3.0 0.00 0.00 0.00 80 1021.5
20260904234652 74 38 0.0 2.0 0.00 0.00 0.00 79 1021.4
20260904233142 75 360 0.0 3.0 0.00 0.00 0.00 78 1021.4
20260904231652 75 360 0.0 4.0 0.00 0.00 0.00 78 1021.4
20260904230153 76 63 0.0 0.0 0.00 0.00 0.00 77 1021.4
20260904224650 76 58 2.0 4.0 0.00 0.00 0.00 77 1021.5
20260904223143 76 38 2.0 4.0 0.00 0.00 0.00 77 1021.4
20260904221652 77 38 1.0 4.0 0.00 0.00 0.00 76 1021.4
20260904220153 77 38 1.0 4.0 0.00 0.00 0.00 76 1021.3
20260904214652 78 38 2.0 3.0 0.00 0.00 0.00 75 1021.1
20260904213141 79 85 2.0 3.0 0.00 0.00 0.00 73 1021.2
20260904211653 80 159 0.0 2.0 0.00 0.00 0.00 71 1021.2
20260904210153 81 159 0.0 3.0 0.00 0.00 0.00 70 1021.1
20260904204652 82 159 0.0 1.0 0.00 0.00 0.00 69 1021.1
20260904203140 83 160 0.0 6.0 0.00 0.00 0.00 68 1021.1
20260904201651 83 149 2.0 8.0 0.00 0.00 0.00 67 1021.0
20260904200152 83 190 4.0 9.0 0.00 0.00 0.00 67 1020.8
20260904194652 84 177 5.0 7.0 0.00 0.00 0.00 66 1020.7
20260904193142 84 192 2.0 5.0 0.00 0.00 0.00 65 1020.7
20260904191650 85 127 4.0 8.0 0.00 0.00 0.00 64 1020.6
20260904190151 85 162 3.0 10.0 0.00 0.00 0.00 63 1020.3
20260904184650 86 169 2.0 10.0 0.00 0.00 0.00 63 1020.0
20260904183140 87 86 2.0 12.0 0.00 0.00 0.00 61 1019.7
20260904181652 87 145 4.0 10.0 0.00 0.00 0.00 58 1019.4
20260904180156 88 100 3.0 13.0 0.00 0.00 0.00 56 1019.2
20260904174653 89 159 6.0 15.0 0.00 0.00 0.00 54 1019.1
20260904173143 91 184 8.0 14.0 0.00 0.00 0.00 51 1018.8
20260904171650 92 180 5.0 13.0 0.00 0.00 0.00 50 1018.5
20260904170157 93 95 7.0 14.0 0.00 0.00 0.00 49 1018.4
20260904164654 93 155 7.0 14.0 0.00 0.00 0.00 49 1018.3
20260904163142 94 152 7.0 15.0 0.00 0.00 0.00 49 1018.2
20260904161652 95 138 6.0 16.0 0.00 0.00 0.00 49 1018.2
20260904160157 94 142 9.0 15.0 0.00 0.00 0.00 48 1018.2
20260904154653 96 119 8.0 16.0 0.00 0.00 0.00 48 1018.2
20260904153146 96 108 7.0 17.0 0.00 0.00 0.00 47 1018.1
20260904151653 97 173 7.0 15.0 0.00 0.00 0.00 45 1018.0
20260904150155 97 113 5.0 13.0 0.00 0.00 0.00 45 1018.0
20260904144655 99 130 5.0 13.0 0.00 0.00 0.00 44 1017.9
20260904143144 99 99 4.0 15.0 0.00 0.00 0.00 42 1017.9
20260904141652 100 162 5.0 12.0 0.00 0.00 0.00 41 1018.0
20260904140149 99 173 5.0 12.0 0.00 0.00 0.00 41 1018.1
20260904134651 98 203 5.0 16.0 0.00 0.00 0.00 44 1018.4
20260904133142 98 236 6.0 12.0 0.00 0.00 0.00 43 1018.4
20260904131654 99 214 5.0 14.0 0.00 0.00 0.00 41 1018.5
20260904130152 99 112 8.0 16.0 0.00 0.00 0.00 41 1018.5
20260904124654 99 217 7.0 14.0 0.00 0.00 0.00 41 1018.7
20260904123142 99 139 6.0 13.0 0.00 0.00 0.00 39 1018.8
20260904121654 98 149 7.0 14.0 0.00 0.00 0.00 38 1018.9
20260904120151 98 128 5.0 14.0 0.00 0.00 0.00 38 1019.0
20260904114652 97 127 8.0 12.0 0.00 0.00 0.00 40 1019.3
20260904113142 96 119 6.0 12.0 0.00 0.00 0.00 42 1019.5
20260904111652 96 176 5.0 10.0 0.00 0.00 0.00 43 1019.6
20260904110154 95 89 4.0 9.0 0.00 0.00 0.00 43 1019.7
20260904104653 94 29 1.0 9.0 0.00 0.00 0.00 46 1020.1
20260904103157 92 159 0.0 7.0 0.00 0.00 0.00 48 1020.4
20260904101653 89 140 1.0 5.0 0.00 0.00 0.00 53 1020.5
20260904100155 88 214 0.0 4.0 0.00 0.00 0.00 55 1020.8
20260904094654 86 176 1.0 3.0 0.00 0.00 0.00 59 1021.0
20260904093143 83 175 0.0 2.0 0.00 0.00 0.00 62 1021.1
20260904091650 82 14 0.0 3.0 0.00 0.00 0.00 63 1021.2
20260904090156 81 42 2.0 6.0 0.00 0.00 0.00 65 1021.2
20260904084653 79 82 2.0 5.0 0.00 0.00 0.00 69 1021.2
20260904083140 78 39 3.0 6.0 0.00 0.00 0.00 72 1021.4
20260904081651 77 52 1.0 5.0 0.00 0.00 0.00 75 1021.4
20260904080154 75 355 1.0 6.0 0.00 0.00 0.00 78 1021.4
20260904074653 74 13 2.0 6.0 0.00 0.00 0.00 80 1021.5
20260904073145 73 53 3.0 6.0 0.00 0.00 0.00 81 1021.6
20260904071654 72 51 2.0 6.0 0.00 0.00 0.00 84 1021.6
20260904070154 71 63 2.0 6.0 0.00 0.00 0.00 86 1021.6
20260904064652 70 37 3.0 6.0 0.00 0.00 0.00 88 1021.7
20260904063149 69 40 3.0 5.0 0.00 0.00 0.00 90 1021.6
20260904061700 68 20 2.0 5.0 0.00 0.00 0.00 91 1021.6
20260904060153 68 30 3.0 6.0 0.00 0.00 0.00 91 1021.6
20260904054653 68 28 2.0 5.0 0.00 0.00 0.00 91 1021.5
20260904053144 68 45 3.0 6.0 0.00 0.00 0.00 91 1021.6
20260904051654 68 61 3.0 8.0 0.00 0.00 0.00 91 1021.5
20260904050154 68 33 2.0 6.0 0.00 0.00 0.00 91 1021.5
20260904044653 68 45 3.0 6.0 0.00 0.00 0.00 91 1021.6
20260904043144 68 32 2.0 6.0 0.00 0.00 0.00 91 1021.7
20260904041652 69 46 2.0 4.0 0.00 0.00 0.00 91 1021.7
20260904040153 69 52 3.0 6.0 0.00 0.00 0.00 91 1021.8
20260904034651 69 51 4.0 6.0 0.00 0.00 0.00 91 1021.9
20260904033145 69 46 2.0 8.0 0.00 0.00 0.00 90 1021.9
20260904031653 69 28 4.0 7.0 0.00 0.00 0.00 90 1022.0
20260904030152 69 355 1.0 4.0 0.00 0.00 0.00 91 1022.1
20260904024653 69 65 2.0 4.0 0.00 0.00 0.00 90 1022.2